Location: Prairie State College
(41.5244°N, 87.6382°W)
Time: 10:16:54
(UTC-05:00)

ISS - All Passes

Search period start: 25 October 2014 00:00
Search period end: 03 November 2014 23:00
Orbit: 412 x 416 km, 51.6° (Epoch: 25 October)

Date Brightness Start Highest point End Pass type
(mag) Time Alt. Az. Time Alt. Az. Time Alt. Az.
25 Oct - 11:23:20 10° SE 11:23:44 10° SE 11:24:08 10° ESE daylight
25 Oct - 12:56:35 10° SW 12:59:55 89° SE 13:03:16 10° NE daylight
25 Oct - 14:34:21 10° WNW 14:36:58 21° NNW 14:39:35 10° NE daylight
25 Oct - 16:12:38 10° NNW 16:14:35 15° N 16:16:33 10° NE daylight
25 Oct - 17:49:11 10° NW 17:52:07 27° NNE 17:55:02 10° E daylight
25 Oct - 19:25:42 10° WNW 19:28:56 48° SW 19:32:09 10° SE visible
26 Oct - 12:07:31 10° SW 12:10:45 49° SE 12:13:59 10° ENE daylight
26 Oct - 13:44:40 10° W 13:47:34 27° NNW 13:50:29 10° NE daylight
26 Oct - 15:23:08 10° NW 15:25:06 15° N 15:27:03 10° NNE daylight
26 Oct - 17:00:05 10° NW 17:02:43 21° NNE 17:05:21 10° ENE daylight
26 Oct - 18:36:24 10° NW 18:39:45 87° SW 18:43:05 10° SE visible
27 Oct - 11:18:44 10° SSW 11:21:36 27° SE 11:24:29 10° ENE daylight
27 Oct - 12:55:03 10° W 12:58:11 38° NNW 13:01:21 10° NE daylight
27 Oct - 14:33:27 10° NW 14:35:34 16° N 14:37:41 10° NNE daylight
27 Oct - 16:10:55 10° NNW 16:13:14 17° NNE 16:15:33 10° ENE daylight
27 Oct - 17:47:11 10° NW 17:50:29 55° NNE 17:53:45 10° ESE daylight
27 Oct - 19:24:33 10° W 19:26:53 18° SW 19:29:12 10° S visible
28 Oct - 10:30:24 10° S 10:32:29 16° SE 10:34:34 10° E daylight
28 Oct - 12:05:32 10° WSW 12:08:50 61° NNW 12:12:08 10° NE daylight
28 Oct - 13:43:39 10° WNW 13:46:01 18° NNW 13:48:24 10° NNE daylight
28 Oct - 15:21:37 10° NNW 15:23:41 15° N 15:25:45 10° NE daylight
28 Oct - 16:57:59 10° NW 17:01:05 35° NNE 17:04:12 10° E daylight
28 Oct - 18:34:44 10° WNW 18:37:44 31° SW 18:40:42 10° SSE visible
29 Oct - 11:16:11 10° SW 11:19:30 77° SE 11:22:49 10° ENE daylight
29 Oct - 12:53:48 10° WNW 12:56:28 22° NNW 12:59:10 10° NE daylight
29 Oct - 14:32:08 10° NW 14:34:04 14° N 14:36:00 10° NE daylight
29 Oct - 16:08:46 10° NW 16:11:37 25° NNE 16:14:27 10° E daylight
29 Oct - 17:45:12 10° WNW 17:48:29 56° SW 17:51:44 10° SE daylight
30 Oct - 10:27:02 10° SSW 10:30:11 42° SE 10:33:21 10° ENE daylight
30 Oct - 12:03:58 10° W 12:06:56 29° NNW 12:09:55 10° NE daylight
30 Oct - 13:42:26 10° NW 13:44:25 15° N 13:46:23 10° NNE daylight
30 Oct - 15:19:30 10° NNW 15:22:02 20° NNE 15:24:34 10° ENE daylight
30 Oct - 16:55:47 10° NW 16:59:08 81° NE 17:02:27 10° ESE daylight
30 Oct - 18:34:06 10° WSW 18:35:21 12° SW 18:36:36 10° SSW visible
31 Oct - 09:38:11 10° S 09:40:54 23° SE 09:43:37 10° E daylight
31 Oct - 11:14:13 10° WSW 11:17:24 43° NNW 11:20:37 10° NE daylight
31 Oct - 12:52:34 10° NW 12:54:44 16° N 12:56:54 10° NNE daylight
31 Oct - 14:30:09 10° NNW 14:32:23 17° N 14:34:37 10° NE daylight
31 Oct - 16:06:25 10° NW 16:09:40 48° NNE 16:12:54 10° ESE daylight
31 Oct - 17:43:34 10° W 17:46:08 21° SW 17:48:41 10° S daylight
01 Nov - 08:49:57 10° SSE 08:51:38 13° SE 08:53:20 10° E daylight
01 Nov - 10:24:36 10° WSW 10:27:54 72° NW 10:31:14 10° NE daylight
01 Nov - 12:02:35 10° WNW 12:05:02 19° NNW 12:07:30 10° NNE daylight
01 Nov - 13:40:40 10° NNW 13:42:40 15° N 13:44:40 10° NE daylight
01 Nov - 15:17:04 10° NW 15:20:07 32° NNE 15:23:08 10° E daylight
01 Nov - 16:53:43 10° WNW 16:56:48 36° SW 16:59:53 10° SSE daylight
02 Nov - 08:35:09 10° SW 08:38:26 65° SE 08:41:44 10° ENE daylight
02 Nov - 10:12:35 10° WNW 10:15:20 24° NNW 10:18:07 10° NE daylight
02 Nov - 11:50:59 10° NW 11:52:54 14° N 11:54:49 10° NE daylight
02 Nov - 13:27:42 10° NW 13:30:27 23° NNE 13:33:12 10° ENE daylight
02 Nov - 15:04:04 10° WNW 15:07:23 67° SW 15:10:40 10° SE daylight
03 Nov - 07:45:56 10° SSW 07:48:59 35° SE 07:52:03 10° ENE daylight
03 Nov - 09:22:37 10° W 09:25:39 32° NNW 09:28:42 10° NE daylight
03 Nov - 11:01:04 10° NW 11:03:05 15° N 11:05:06 10° NNE daylight
03 Nov - 12:38:16 10° NNW 12:40:43 19° NNE 12:43:09 10° ENE daylight
03 Nov - 14:14:31 10° NW 14:17:51 69° NNE 14:21:09 10° ESE daylight
03 Nov - 15:52:20 10° W 15:54:08 14° SW 15:55:55 10° SSW daylight
